Time,TemperatureF,DewpointF,PressureIn,WindDirection,WindDirectionDegrees,WindSpeedMPH,WindSpeedGustMPH,Humidity,HourlyPrecipIn,Conditions,Clouds,dailyrainin,SoftwareType,DateUTC
2013-07-14 00:01:00,75.2,72.4,30.04,South,186,3.0,3.0,91,0.00,,CLR,0.00,VWS V14.01,2013-07-14 04:01:00,
2013-07-14 00:06:00,75.1,72.3,30.04,South,186,0.0,3.0,91,0.00,,CLR,0.00,VWS V14.01,2013-07-14 04:06:00,
2013-07-14 00:11:00,75.1,72.3,30.04,SSE,153,4.0,4.0,91,0.00,,CLR,0.00,VWS V14.01,2013-07-14 04:11:00,
2013-07-14 00:16:00,75.0,72.2,30.04,SSE,159,2.0,4.0,91,0.00,,CLR,0.00,VWS V14.01,2013-07-14 04:16:00,
2013-07-14 00:21:00,74.9,72.1,30.04,SSE,160,0.0,4.0,91,0.00,,CLR,0.00,VWS V14.01,2013-07-14 04:21:00,
2013-07-14 00:26:00,74.8,72.0,30.03,SSE,167,3.0,4.0,91,0.00,,CLR,0.00,VWS V14.01,2013-07-14 04:26:00,
2013-07-14 00:31:00,74.8,72.0,30.04,South,170,0.0,4.0,91,0.00,,CLR,0.00,VWS V14.01,2013-07-14 04:31:00,
2013-07-14 00:36:00,74.7,71.6,30.04,South,171,0.0,4.0,90,0.00,,CLR,0.00,VWS V14.01,2013-07-14 04:36:00,
2013-07-14 00:41:00,74.7,71.9,30.04,South,170,0.0,4.0,91,0.00,,CLR,0.00,VWS V14.01,2013-07-14 04:41:00,
2013-07-14 00:46:00,74.7,72.2,30.04,SSE,164,0.0,4.0,92,0.00,,CLR,0.00,VWS V14.01,2013-07-14 04:46:00,
2013-07-14 00:51:00,74.7,72.2,30.03,SSE,164,0.0,4.0,92,0.00,,CLR,0.00,VWS V14.01,2013-07-14 04:51:00,
2013-07-14 00:56:00,74.7,71.9,30.04,SE,141,0.0,4.0,91,0.00,,CLR,0.00,VWS V14.01,2013-07-14 04:56:00,
2013-07-14 01:01:00,74.6,71.8,30.04,SE,139,0.0,0.0,91,0.00,,CLR,0.00,VWS V14.01,2013-07-14 05:01:00,
2013-07-14 01:06:00,74.6,71.8,30.03,SW,219,0.0,3.0,91,0.00,,CLR,0.00,VWS V14.01,2013-07-14 05:06:00,
2013-07-14 01:11:00,74.6,72.1,30.03,SW,218,0.0,3.0,92,0.00,,CLR,0.00,VWS V14.01,2013-07-14 05:11:00,
2013-07-14 01:16:00,74.6,71.8,30.03,SW,221,0.0,3.0,91,0.00,,CLR,0.00,VWS V14.01,2013-07-14 05:16:00,
2013-07-14 01:21:00,74.6,71.8,30.03,SW,219,0.0,3.0,91,0.00,,CLR,0.00,VWS V14.01,2013-07-14 05:21:00,
2013-07-14 01:26:00,74.6,71.8,30.03,SW,220,0.0,3.0,91,0.00,,CLR,0.00,VWS V14.01,2013-07-14 05:26:00,
2013-07-14 01:31:00,74.6,71.8,30.03,SW,217,0.0,3.0,91,0.00,,CLR,0.00,VWS V14.01,2013-07-14 05:31:00,
2013-07-14 01:36:00,74.5,71.7,30.03,SW,225,0.0,3.0,91,0.00,,CLR,0.00,VWS V14.01,2013-07-14 05:36:00,
2013-07-14 01:41:00,74.5,71.7,30.03,SW,226,0.0,4.0,91,0.00,,CLR,0.00,VWS V14.01,2013-07-14 05:41:00,
2013-07-14 01:46:00,74.5,71.7,30.03,SW,226,1.0,4.0,91,0.00,,CLR,0.00,VWS V14.01,2013-07-14 05:46:00,
2013-07-14 01:51:00,74.4,71.3,30.03,SW,226,0.0,4.0,90,0.00,,CLR,0.00,VWS V14.01,2013-07-14 05:51:00,
2013-07-14 01:56:00,74.3,71.2,30.02,SW,223,0.0,4.0,90,0.00,,CLR,0.00,VWS V14.01,2013-07-14 05:56:00,
2013-07-14 02:01:00,74.3,71.5,30.03,South,179,1.0,4.0,91,0.00,,CLR,0.00,VWS V14.01,2013-07-14 06:01:00,
2013-07-14 02:06:00,74.3,71.8,30.02,South,190,0.0,4.0,92,0.00,,CLR,0.00,VWS V14.01,2013-07-14 06:06:00,
2013-07-14 02:11:00,74.2,71.4,30.02,SE,139,1.0,5.0,91,0.00,,CLR,0.00,VWS V14.01,2013-07-14 06:11:00,
2013-07-14 02:16:00,74.2,71.4,30.02,SE,137,0.0,5.0,91,0.00,,CLR,0.00,VWS V14.01,2013-07-14 06:16:00,
2013-07-14 02:21:00,74.2,71.4,30.02,SE,137,1.0,5.0,91,0.00,,CLR,0.00,VWS V14.01,2013-07-14 06:21:00,
2013-07-14 02:26:00,74.2,71.7,30.03,SE,139,2.0,5.0,92,0.00,,CLR,0.00,VWS V14.01,2013-07-14 06:26:00,
2013-07-14 02:31:00,74.2,71.7,30.02,SE,136,0.0,5.0,92,0.00,,CLR,0.00,VWS V14.01,2013-07-14 06:31:00,
2013-07-14 02:36:00,74.2,71.4,30.02,SSE,155,2.0,5.0,91,0.00,,CLR,0.00,VWS V14.01,2013-07-14 06:36:00,
2013-07-14 02:41:00,74.2,71.7,30.03,SSE,149,0.0,5.0,92,0.00,,CLR,0.00,VWS V14.01,2013-07-14 06:41:00,
2013-07-14 02:46:00,74.1,71.3,30.02,SSE,156,4.0,5.0,91,0.00,,CLR,0.00,VWS V14.01,2013-07-14 06:46:00,
2013-07-14 02:51:00,74.1,71.3,30.02,South,181,0.0,6.0,91,0.00,,CLR,0.00,VWS V14.01,2013-07-14 06:51:00,
2013-07-14 02:56:00,74.1,71.3,30.03,South,188,1.0,6.0,91,0.00,,CLR,0.00,VWS V14.01,2013-07-14 06:56:00,
2013-07-14 03:01:00,74.1,71.3,30.02,South,185,0.0,0.0,91,0.00,,CLR,0.00,VWS V14.01,2013-07-14 07:01:00,
2013-07-14 03:06:00,74.1,71.3,30.02,South,180,0.0,4.0,91,0.00,,CLR,0.00,VWS V14.01,2013-07-14 07:06:00,
2013-07-14 03:11:00,74.0,71.8,30.02,South,176,0.0,4.0,93,0.00,,CLR,0.00,VWS V14.01,2013-07-14 07:11:00,
2013-07-14 03:16:00,74.0,71.8,30.01,South,176,2.0,4.0,93,0.00,,CLR,0.00,VWS V14.01,2013-07-14 07:16:00,
2013-07-14 03:21:00,74.0,71.5,30.02,South,177,0.0,4.0,92,0.00,,CLR,0.00,VWS V14.01,2013-07-14 07:21:00,
2013-07-14 03:26:00,73.9,71.1,30.02,South,179,0.0,4.0,91,0.00,,CLR,0.00,VWS V14.01,2013-07-14 07:26:00,
2013-07-14 03:31:00,73.9,71.4,30.01,South,176,1.0,4.0,92,0.00,,CLR,0.00,VWS V14.01,2013-07-14 07:31:00,
2013-07-14 03:36:00,73.9,71.4,30.02,South,177,4.0,5.0,92,0.00,,CLR,0.00,VWS V14.01,2013-07-14 07:36:00,
2013-07-14 03:41:00,73.8,71.0,30.02,South,171,1.0,6.0,91,0.00,,CLR,0.00,VWS V14.01,2013-07-14 07:41:00,
2013-07-14 03:46:00,73.8,71.0,30.01,SSE,167,3.0,6.0,91,0.00,,CLR,0.00,VWS V14.01,2013-07-14 07:46:00,
2013-07-14 03:51:00,73.8,71.0,30.01,SSW,196,0.0,6.0,91,0.00,,CLR,0.00,VWS V14.01,2013-07-14 07:51:00,
2013-07-14 03:56:00,73.8,71.0,30.01,South,188,1.0,6.0,91,0.00,,CLR,0.00,VWS V14.01,2013-07-14 07:56:00,
2013-07-14 04:01:00,73.7,70.9,30.01,South,187,0.0,1.0,91,0.00,,CLR,0.00,VWS V14.01,2013-07-14 08:01:00,
2013-07-14 04:06:00,73.7,71.2,30.01,South,181,0.0,1.0,92,0.00,,CLR,0.00,VWS V14.01,2013-07-14 08:06:00,
2013-07-14 04:11:00,73.7,70.9,30.01,South,181,0.0,1.0,91,0.00,,CLR,0.00,VWS V14.01,2013-07-14 08:11:00,
2013-07-14 04:16:00,73.7,70.9,30.02,South,183,0.0,1.0,91,0.00,,CLR,0.00,VWS V14.01,2013-07-14 08:16:00,
2013-07-14 04:21:00,73.6,70.8,30.01,South,183,0.0,1.0,91,0.00,,CLR,0.00,VWS V14.01,2013-07-14 08:21:00,
2013-07-14 04:26:00,73.6,70.5,30.02,South,188,0.0,1.0,90,0.00,,CLR,0.00,VWS V14.01,2013-07-14 08:26:00,
2013-07-14 04:31:00,73.5,70.4,30.01,South,188,0.0,1.0,90,0.00,,CLR,0.00,VWS V14.01,2013-07-14 08:31:00,
2013-07-14 04:36:00,73.4,70.3,30.02,South,188,0.0,1.0,90,0.00,,CLR,0.00,VWS V14.01,2013-07-14 08:36:00,
2013-07-14 04:41:00,73.4,70.3,30.02,South,188,0.0,1.0,90,0.00,,CLR,0.00,VWS V14.01,2013-07-14 08:41:00,
2013-07-14 04:46:00,73.3,70.2,30.02,South,188,0.0,1.0,90,0.00,,CLR,0.00,VWS V14.01,2013-07-14 08:46:00,
2013-07-14 04:51:00,73.3,70.2,30.02,South,188,0.0,1.0,90,0.00,,CLR,0.00,VWS V14.01,2013-07-14 08:51:00,
2013-07-14 04:56:00,73.3,70.2,30.02,South,188,0.0,3.0,90,0.00,,CLR,0.00,VWS V14.01,2013-07-14 08:56:00,
2013-07-14 05:01:00,73.3,70.2,30.02,South,188,0.0,0.0,90,0.00,,CLR,0.00,VWS V14.01,2013-07-14 09:01:00,
2013-07-14 05:06:00,73.2,70.1,30.02,South,188,0.0,2.0,90,0.00,,CLR,0.00,VWS V14.01,2013-07-14 09:06:00,
2013-07-14 05:11:00,73.2,70.1,30.01,South,188,0.0,2.0,90,0.00,,CLR,0.00,VWS V14.01,2013-07-14 09:11:00,
2013-07-14 05:16:00,73.2,70.1,30.02,South,188,0.0,2.0,90,0.00,,CLR,0.00,VWS V14.01,2013-07-14 09:16:00,
2013-07-14 05:21:00,73.2,70.1,30.02,South,188,0.0,2.0,90,0.00,,CLR,0.00,VWS V14.01,2013-07-14 09:21:00,
2013-07-14 05:26:00,73.2,70.1,30.02,South,188,0.0,2.0,90,0.00,,CLR,0.00,VWS V14.01,2013-07-14 09:26:00,
2013-07-14 05:31:00,73.1,70.0,30.02,South,188,0.0,2.0,90,0.00,,CLR,0.00,VWS V14.01,2013-07-14 09:31:00,
2013-07-14 05:36:00,73.0,69.9,30.02,South,188,0.0,2.0,90,0.00,,CLR,0.00,VWS V14.01,2013-07-14 09:36:00,
2013-07-14 05:41:00,72.9,69.8,30.02,South,188,0.0,2.0,90,0.00,,CLR,0.00,VWS V14.01,2013-07-14 09:41:00,
2013-07-14 05:46:00,72.8,69.7,30.02,South,188,0.0,2.0,90,0.00,,CLR,0.00,VWS V14.01,2013-07-14 09:46:00,
2013-07-14 05:51:00,72.8,69.7,30.02,South,188,0.0,2.0,90,0.00,,CLR,0.00,VWS V14.01,2013-07-14 09:51:00,
2013-07-14 05:56:00,72.8,69.7,30.02,South,188,0.0,2.0,90,0.00,,CLR,0.00,VWS V14.01,2013-07-14 09:56:00,
2013-07-14 06:01:00,72.9,69.8,30.02,South,188,0.0,0.0,90,0.00,,CLR,0.00,VWS V14.01,2013-07-14 10:01:00,
2013-07-14 06:06:00,72.8,69.7,30.02,South,188,0.0,0.0,90,0.00,,CLR,0.00,VWS V14.01,2013-07-14 10:06:00,
2013-07-14 06:11:00,72.7,69.6,30.02,South,188,0.0,0.0,90,0.00,,CLR,0.00,VWS V14.01,2013-07-14 10:11:00,
2013-07-14 06:16:00,72.6,69.5,30.02,South,188,0.0,0.0,90,0.00,,CLR,0.00,VWS V14.01,2013-07-14 10:16:00,
2013-07-14 06:21:00,72.7,69.6,30.02,South,188,0.0,0.0,90,0.00,,CLR,0.00,VWS V14.01,2013-07-14 10:21:00,
2013-07-14 06:26:00,72.7,69.6,30.02,South,188,0.0,0.0,90,0.00,,CLR,0.00,VWS V14.01,2013-07-14 10:26:00,
2013-07-14 06:31:00,72.7,69.6,30.02,South,188,0.0,0.0,90,0.00,,CLR,0.00,VWS V14.01,2013-07-14 10:31:00,
2013-07-14 06:36:00,72.8,70.0,30.02,South,188,0.0,0.0,91,0.00,,CLR,0.00,VWS V14.01,2013-07-14 10:36:00,
2013-07-14 06:41:00,72.8,70.0,30.02,South,188,0.0,0.0,91,0.00,,CLR,0.00,VWS V14.01,2013-07-14 10:41:00,
2013-07-14 06:46:00,72.8,70.0,30.02,South,188,0.0,0.0,91,0.00,,CLR,0.00,VWS V14.01,2013-07-14 10:46:00,
2013-07-14 06:51:00,72.9,70.1,30.02,South,188,0.0,1.0,91,0.00,,CLR,0.00,VWS V14.01,2013-07-14 10:51:00,
2013-07-14 06:56:00,72.9,70.1,30.02,South,188,0.0,1.0,91,0.00,,CLR,0.00,VWS V14.01,2013-07-14 10:56:00,
2013-07-14 07:01:00,72.9,70.1,30.02,South,188,0.0,0.0,91,0.00,,CLR,0.00,VWS V14.01,2013-07-14 11:01:00,
2013-07-14 07:06:00,73.0,70.2,30.03,South,188,0.0,0.0,91,0.00,,CLR,0.00,VWS V14.01,2013-07-14 11:06:00,
2013-07-14 07:11:00,73.0,70.2,30.03,South,188,0.0,0.0,91,0.00,,CLR,0.00,VWS V14.01,2013-07-14 11:11:00,
2013-07-14 07:16:00,73.1,70.3,30.02,South,188,0.0,0.0,91,0.00,,CLR,0.00,VWS V14.01,2013-07-14 11:16:00,
2013-07-14 07:21:00,73.1,70.3,30.03,South,188,0.0,0.0,91,0.00,,CLR,0.00,VWS V14.01,2013-07-14 11:21:00,
2013-07-14 07:26:00,73.2,70.7,30.03,South,188,0.0,1.0,92,0.00,,CLR,0.00,VWS V14.01,2013-07-14 11:26:00,
2013-07-14 07:31:00,73.4,70.9,30.03,SE,128,0.0,2.0,92,0.00,,CLR,0.00,VWS V14.01,2013-07-14 11:31:00,
2013-07-14 07:36:00,73.6,71.1,30.03,SE,128,0.0,2.0,92,0.00,,CLR,0.00,VWS V14.01,2013-07-14 11:36:00,
2013-07-14 07:41:00,73.8,71.7,30.03,South,170,0.0,4.0,93,0.00,,CLR,0.00,VWS V14.01,2013-07-14 11:41:00,
2013-07-14 07:46:00,74.1,71.9,30.03,SSE,168,0.0,4.0,93,0.00,,CLR,0.00,VWS V14.01,2013-07-14 11:46:00,
2013-07-14 07:51:00,74.4,72.2,30.04,SSE,149,1.0,6.0,93,0.00,,CLR,0.00,VWS V14.01,2013-07-14 11:51:00,
2013-07-14 07:56:00,74.8,72.6,30.05,SSE,152,0.0,6.0,93,0.00,,CLR,0.00,VWS V14.01,2013-07-14 11:56:00,
2013-07-14 08:01:00,75.1,72.9,30.05,SSE,149,0.0,3.0,93,0.00,,CLR,0.00,VWS V14.01,2013-07-14 12:01:00,
2013-07-14 08:06:00,75.4,73.6,30.05,South,171,1.0,5.0,94,0.00,,CLR,0.00,VWS V14.01,2013-07-14 12:06:00,
2013-07-14 08:11:00,75.7,73.8,30.06,SSE,154,4.0,6.0,94,0.00,,CLR,0.00,VWS V14.01,2013-07-14 12:11:00,
2013-07-14 08:16:00,75.9,74.1,30.06,SE,138,1.0,6.0,94,0.00,,CLR,0.00,VWS V14.01,2013-07-14 12:16:00,
2013-07-14 08:21:00,76.3,74.1,30.06,South,174,0.0,6.0,93,0.00,,CLR,0.00,VWS V14.01,2013-07-14 12:21:00,
2013-07-14 08:26:00,76.5,74.3,30.06,SSE,154,2.0,8.0,93,0.00,,CLR,0.00,VWS V14.01,2013-07-14 12:26:00,
2013-07-14 08:31:00,76.8,74.3,30.06,SE,139,5.0,8.0,92,0.00,,CLR,0.00,VWS V14.01,2013-07-14 12:31:00,
2013-07-14 08:36:00,77.1,74.6,30.06,SSE,166,6.0,11.0,92,0.00,,CLR,0.00,VWS V14.01,2013-07-14 12:36:00,
2013-07-14 08:41:00,77.4,74.9,30.06,South,185,3.0,11.0,92,0.00,,CLR,0.00,VWS V14.01,2013-07-14 12:41:00,
2013-07-14 08:46:00,77.7,74.9,30.07,South,176,4.0,11.0,91,0.00,,CLR,0.00,VWS V14.01,2013-07-14 12:46:00,
2013-07-14 08:51:00,77.9,74.7,30.07,SSE,154,6.0,11.0,90,0.00,,CLR,0.00,VWS V14.01,2013-07-14 12:51:00,
2013-07-14 08:56:00,78.3,74.5,30.07,South,174,9.0,14.0,88,0.00,,CLR,0.00,VWS V14.01,2013-07-14 12:56:00,
2013-07-14 09:01:00,78.5,74.3,30.07,SE,131,4.0,8.0,87,0.00,,CLR,0.00,VWS V14.01,2013-07-14 13:01:00,
2013-07-14 09:06:00,78.7,75.2,30.07,SSE,166,5.0,11.0,89,0.00,,CLR,0.00,VWS V14.01,2013-07-14 13:06:00,
2013-07-14 09:11:00,78.9,74.7,30.06,ESE,112,0.0,11.0,87,0.00,,CLR,0.00,VWS V14.01,2013-07-14 13:11:00,
2013-07-14 09:16:00,79.2,74.7,30.06,SSE,152,5.0,11.0,86,0.00,,CLR,0.00,VWS V14.01,2013-07-14 13:16:00,
2013-07-14 09:21:00,79.4,74.8,30.07,SSW,192,4.0,11.0,86,0.00,,CLR,0.00,VWS V14.01,2013-07-14 13:21:00,
2013-07-14 09:26:00,79.7,75.2,30.06,SSW,195,4.0,11.0,86,0.00,,CLR,0.00,VWS V14.01,2013-07-14 13:26:00,
2013-07-14 09:31:00,80.0,75.4,30.07,SSE,161,7.0,11.0,86,0.00,,CLR,0.00,VWS V14.01,2013-07-14 13:31:00,
2013-07-14 09:36:00,80.3,75.4,30.07,SSW,203,5.0,11.0,85,0.00,,CLR,0.00,VWS V14.01,2013-07-14 13:36:00,
2013-07-14 09:41:00,80.6,75.3,30.07,South,176,4.0,11.0,84,0.00,,CLR,0.00,VWS V14.01,2013-07-14 13:41:00,
2013-07-14 09:46:00,80.8,75.2,30.07,South,191,3.0,11.0,83,0.00,,CLR,0.00,VWS V14.01,2013-07-14 13:46:00,
2013-07-14 09:51:00,81.1,75.1,30.07,South,176,6.0,11.0,82,0.00,,CLR,0.00,VWS V14.01,2013-07-14 13:51:00,
2013-07-14 09:56:00,81.4,75.0,30.06,SSE,164,4.0,11.0,81,0.00,,CLR,0.00,VWS V14.01,2013-07-14 13:56:00,
2013-07-14 10:01:00,81.7,75.3,30.08,South,184,2.0,7.0,81,0.00,,FEW024,0.00,VWS V14.01,2013-07-14 14:01:00,
2013-07-14 10:06:00,81.9,75.5,30.08,South,170,9.0,9.0,81,0.00,,FEW024,0.00,VWS V14.01,2013-07-14 14:06:00,
2013-07-14 10:11:00,82.2,75.4,30.07,South,178,4.0,10.0,80,0.00,,FEW024,0.00,VWS V14.01,2013-07-14 14:11:00,
2013-07-14 10:16:00,82.5,75.7,30.08,South,185,5.0,10.0,80,0.00,,FEW024,0.00,VWS V14.01,2013-07-14 14:16:00,
2013-07-14 10:21:00,82.7,75.5,30.07,SE,146,3.0,11.0,79,0.00,,FEW024,0.00,VWS V14.01,2013-07-14 14:21:00,
2013-07-14 10:26:00,82.8,75.6,30.08,SSW,196,6.0,11.0,79,0.00,,FEW024,0.00,VWS V14.01,2013-07-14 14:26:00,
2013-07-14 10:31:00,82.8,75.2,30.08,ESE,123,5.0,11.0,78,0.00,,FEW024,0.00,VWS V14.01,2013-07-14 14:31:00,
2013-07-14 10:36:00,83.1,75.5,30.08,South,189,3.0,11.0,78,0.00,,FEW024,0.00,VWS V14.01,2013-07-14 14:36:00,
2013-07-14 10:41:00,83.2,75.2,30.08,South,180,3.0,11.0,77,0.00,,FEW024,0.00,VWS V14.01,2013-07-14 14:41:00,
2013-07-14 10:46:00,83.3,75.3,30.08,South,190,3.0,11.0,77,0.00,,FEW024,0.00,VWS V14.01,2013-07-14 14:46:00,
2013-07-14 10:51:00,83.4,75.8,30.08,South,178,4.0,11.0,78,0.00,,FEW024,0.00,VWS V14.01,2013-07-14 14:51:00,
2013-07-14 10:56:00,83.4,75.4,30.08,SSW,204,4.0,11.0,77,0.00,,FEW024,0.00,VWS V14.01,2013-07-14 14:56:00,
2013-07-14 11:01:00,83.4,75.4,30.08,SSW,200,0.0,3.0,77,0.00,,BKN042,0.00,VWS V14.01,2013-07-14 15:01:00,
2013-07-14 11:06:00,83.4,75.8,30.08,SSE,155,7.0,8.0,78,0.00,,BKN042,0.00,VWS V14.01,2013-07-14 15:06:00,
2013-07-14 11:11:00,83.4,75.8,30.08,SSE,159,0.0,8.0,78,0.00,,BKN042,0.00,VWS V14.01,2013-07-14 15:11:00,
2013-07-14 11:16:00,83.5,75.5,30.08,SE,133,2.0,8.0,77,0.00,,BKN050,0.00,VWS V14.01,2013-07-14 15:16:00,
2013-07-14 11:21:00,83.6,75.6,30.09,South,171,0.0,8.0,77,0.00,,BKN050,0.00,VWS V14.01,2013-07-14 15:21:00,
2013-07-14 11:26:00,83.6,75.6,30.08,SSE,155,0.0,8.0,77,0.00,,BKN050,0.00,VWS V14.01,2013-07-14 15:26:00,
2013-07-14 11:31:00,83.6,75.6,30.08,SSE,158,0.0,8.0,77,0.00,,BKN050,0.00,VWS V14.01,2013-07-14 15:31:00,
2013-07-14 11:36:00,83.7,76.1,30.08,SSE,147,0.0,8.0,78,0.00,,BKN050,0.00,VWS V14.01,2013-07-14 15:36:00,
2013-07-14 11:41:00,83.5,75.1,30.10,SSE,155,0.0,8.0,76,0.00,,BKN050,0.00,VWS V14.01,2013-07-14 15:41:00,
2013-07-14 11:46:00,83.3,75.3,30.09,SE,141,0.0,8.0,77,0.00,,BKN050,0.00,VWS V14.01,2013-07-14 15:46:00,
2013-07-14 11:51:00,83.2,76.0,30.09,East,86,3.0,8.0,79,0.00,,BKN050,0.00,VWS V14.01,2013-07-14 15:51:00,
2013-07-14 11:56:00,82.9,75.7,30.09,East,91,5.0,9.0,79,0.00,,BKN050,0.00,VWS V14.01,2013-07-14 15:56:00,
2013-07-14 12:01:00,82.4,75.2,30.09,East,96,7.0,9.0,79,0.00,,OVC049,0.00,VWS V14.01,2013-07-14 16:01:00,
2013-07-14 12:06:00,82.2,75.0,30.10,ESE,114,4.0,10.0,79,0.00,,OVC049,0.00,VWS V14.01,2013-07-14 16:06:00,
2013-07-14 12:11:00,81.3,74.2,30.10,East,99,3.0,15.0,79,0.00,,OVC049,0.00,VWS V14.01,2013-07-14 16:11:00,
2013-07-14 12:16:00,80.6,73.9,30.11,ESE,104,4.0,15.0,80,0.00,,OVC049,0.00,VWS V14.01,2013-07-14 16:16:00,
2013-07-14 12:21:00,80.1,73.8,30.10,ESE,105,5.0,15.0,81,0.00,,OVC049,0.00,VWS V14.01,2013-07-14 16:21:00,
2013-07-14 12:26:00,79.8,73.8,30.10,ESE,116,6.0,15.0,82,0.00,,OVC049,0.00,VWS V14.01,2013-07-14 16:26:00,
2013-07-14 12:31:00,79.4,73.1,30.09,ENE,72,5.0,15.0,81,0.00,,OVC049,0.00,VWS V14.01,2013-07-14 16:31:00,
2013-07-14 12:36:00,79.2,73.2,30.09,NE,53,4.0,15.0,82,0.00,,OVC049,0.00,VWS V14.01,2013-07-14 16:36:00,
2013-07-14 12:41:00,79.2,73.6,30.10,ESE,120,2.0,15.0,83,0.00,,OVC049,0.00,VWS V14.01,2013-07-14 16:41:00,
2013-07-14 12:46:00,79.4,74.5,30.10,East,100,3.0,15.0,85,0.00,,OVC049,0.00,VWS V14.01,2013-07-14 16:46:00,
2013-07-14 12:51:00,79.4,74.8,30.10,ESE,105,6.0,15.0,86,0.00,,OVC049,0.00,VWS V14.01,2013-07-14 16:51:00,
2013-07-14 12:56:00,79.0,74.5,30.11,ESE,111,15.0,15.0,86,0.00,,OVC049,0.00,VWS V14.01,2013-07-14 16:56:00,
2013-07-14 13:01:00,79.0,74.8,30.11,ESE,115,7.0,8.0,87,0.00,,OVC100,0.00,VWS V14.01,2013-07-14 17:01:00,
2013-07-14 13:06:00,79.0,74.8,30.10,ESE,116,9.0,16.0,87,0.00,,OVC100,0.00,VWS V14.01,2013-07-14 17:06:00,
2013-07-14 13:11:00,79.0,74.8,30.09,ESE,111,12.0,16.0,87,0.00,,OVC100,0.00,VWS V14.01,2013-07-14 17:11:00,
2013-07-14 13:16:00,79.2,75.0,30.09,ESE,105,5.0,16.0,87,0.00,,OVC100,0.00,VWS V14.01,2013-07-14 17:16:00,
2013-07-14 13:21:00,79.4,74.8,30.10,ESE,103,6.0,16.0,86,0.00,,OVC100,0.00,VWS V14.01,2013-07-14 17:21:00,
2013-07-14 13:26:00,79.5,74.9,30.10,SE,134,7.0,16.0,86,0.00,,OVC100,0.00,VWS V14.01,2013-07-14 17:26:00,
2013-07-14 13:31:00,79.7,74.8,30.11,SE,129,7.0,16.0,85,0.00,,OVC100,0.00,VWS V14.01,2013-07-14 17:31:00,
2013-07-14 13:36:00,80.0,75.1,30.10,SE,136,7.0,16.0,85,0.00,,OVC100,0.00,VWS V14.01,2013-07-14 17:36:00,
2013-07-14 13:41:00,80.2,75.3,30.11,East,82,5.0,16.0,85,0.00,,OVC100,0.00,VWS V14.01,2013-07-14 17:41:00,
2013-07-14 13:46:00,80.4,75.1,30.10,East,100,11.0,17.0,84,0.00,,BKN060,0.00,VWS V14.01,2013-07-14 17:46:00,
2013-07-14 13:51:00,80.7,75.4,30.11,SE,135,4.0,18.0,84,0.00,,BKN060,0.00,VWS V14.01,2013-07-14 17:51:00,
2013-07-14 13:56:00,81.1,75.8,30.11,ESE,111,9.0,18.0,84,0.00,,BKN060,0.00,VWS V14.01,2013-07-14 17:56:00,
2013-07-14 14:01:00,81.5,76.2,30.12,SE,131,6.0,12.0,84,0.00,,BKN055,0.00,VWS V14.01,2013-07-14 18:01:00,
2013-07-14 14:06:00,81.6,75.9,30.12,ESE,109,10.0,16.0,83,0.00,,BKN055,0.00,VWS V14.01,2013-07-14 18:06:00,
2013-07-14 14:11:00,81.5,75.5,30.12,SE,134,12.0,16.0,82,0.00,,OVC055,0.00,VWS V14.01,2013-07-14 18:11:00,
2013-07-14 14:16:00,81.3,75.7,30.13,SE,133,8.0,16.0,83,0.00,,OVC055,0.00,VWS V14.01,2013-07-14 18:16:00,
2013-07-14 14:21:00,81.2,75.6,30.12,SSE,152,6.0,16.0,83,0.00,,OVC055,0.00,VWS V14.01,2013-07-14 18:21:00,
2013-07-14 14:26:00,81.1,75.4,30.12,SE,124,7.0,16.0,83,0.00,,OVC055,0.00,VWS V14.01,2013-07-14 18:26:00,
2013-07-14 14:31:00,80.8,74.8,30.12,ESE,110,6.0,16.0,82,0.00,,OVC055,0.00,VWS V14.01,2013-07-14 18:31:00,
2013-07-14 14:36:00,80.6,75.0,30.13,SSE,164,9.0,16.0,83,0.00,,OVC055,0.00,VWS V14.01,2013-07-14 18:36:00,
2013-07-14 14:41:00,80.4,74.4,30.13,SSE,163,13.0,16.0,82,0.00,,-RA,0.00,VWS V14.01,2013-07-14 18:41:00,
2013-07-14 14:46:00,80.1,73.4,30.13,South,174,13.0,17.0,80,0.00,,-RA,0.00,VWS V14.01,2013-07-14 18:46:00,
2013-07-14 14:51:00,80.0,73.3,30.13,SSE,159,5.0,17.0,80,0.00,,-RA,0.00,VWS V14.01,2013-07-14 18:51:00,
2013-07-14 14:56:00,79.8,73.1,30.13,South,174,4.0,17.0,80,0.00,,-RA,0.00,VWS V14.01,2013-07-14 18:56:00,
2013-07-14 15:01:00,79.7,73.4,30.13,SSW,193,6.0,6.0,81,0.00,,-RA,0.00,VWS V14.01,2013-07-14 19:01:00,
2013-07-14 15:06:00,79.5,72.4,30.13,SSW,194,12.0,16.0,79,0.00,,-RA,0.00,VWS V14.01,2013-07-14 19:06:00,
2013-07-14 15:11:00,79.3,72.2,30.12,South,187,7.0,16.0,79,0.00,,-RA,0.00,VWS V14.01,2013-07-14 19:11:00,
2013-07-14 15:16:00,79.1,71.7,30.11,SSW,196,10.0,16.0,78,0.00,,-RA,0.00,VWS V14.01,2013-07-14 19:16:00,
2013-07-14 15:21:00,78.9,71.5,30.12,South,171,5.0,16.0,78,0.00,,-RA,0.00,VWS V14.01,2013-07-14 19:21:00,
2013-07-14 15:26:00,78.8,71.4,30.11,SSW,208,4.0,16.0,78,0.00,,-RA,0.00,VWS V14.01,2013-07-14 19:26:00,
2013-07-14 15:31:00,78.7,71.6,30.11,South,187,6.0,16.0,79,0.00,,-RA,0.00,VWS V14.01,2013-07-14 19:31:00,
2013-07-14 15:36:00,78.7,71.6,30.10,South,184,4.0,16.0,79,0.00,,-RA,0.00,VWS V14.01,2013-07-14 19:36:00,
2013-07-14 15:41:00,78.7,71.6,30.10,South,187,6.0,16.0,79,0.00,,-RA,0.00,VWS V14.01,2013-07-14 19:41:00,
2013-07-14 15:46:00,78.8,71.7,30.11,SSE,167,6.0,16.0,79,0.00,,-RA,0.00,VWS V14.01,2013-07-14 19:46:00,
2013-07-14 15:51:00,78.8,71.7,30.10,SSW,197,3.0,16.0,79,0.00,,-RA,0.00,VWS V14.01,2013-07-14 19:51:00,
2013-07-14 15:56:00,78.8,71.7,30.10,South,176,5.0,16.0,79,0.00,,-RA,0.00,VWS V14.01,2013-07-14 19:56:00,
2013-07-14 16:01:00,78.9,71.8,30.10,SSW,208,4.0,6.0,79,0.00,,-RA,0.00,VWS V14.01,2013-07-14 20:01:00,
2013-07-14 16:06:00,78.9,71.8,30.10,South,180,2.0,7.0,79,0.00,,-RA,0.00,VWS V14.01,2013-07-14 20:06:00,
2013-07-14 16:11:00,79.1,72.0,30.09,SSE,152,0.0,7.0,79,0.00,,-RA,0.00,VWS V14.01,2013-07-14 20:11:00,
2013-07-14 16:16:00,79.1,72.4,30.09,SSW,203,5.0,7.0,80,0.00,,-RA,0.00,VWS V14.01,2013-07-14 20:16:00,
2013-07-14 16:21:00,79.2,72.5,30.09,SSW,209,5.0,7.0,80,0.00,,-RA,0.00,VWS V14.01,2013-07-14 20:21:00,
2013-07-14 16:26:00,79.3,72.6,30.08,SSW,213,2.0,7.0,80,0.00,,-RA,0.00,VWS V14.01,2013-07-14 20:26:00,
2013-07-14 16:31:00,79.3,72.6,30.08,SSE,163,0.0,7.0,80,0.00,,-RA,0.00,VWS V14.01,2013-07-14 20:31:00,
2013-07-14 16:36:00,79.4,72.7,30.08,SSE,163,0.0,7.0,80,0.00,,-RA,0.00,VWS V14.01,2013-07-14 20:36:00,
2013-07-14 16:41:00,79.4,73.1,30.08,SE,137,6.0,7.0,81,0.00,,-RA,0.00,VWS V14.01,2013-07-14 20:41:00,
2013-07-14 16:46:00,79.5,73.2,30.09,SE,125,2.0,7.0,81,0.00,,-RA,0.00,VWS V14.01,2013-07-14 20:46:00,
2013-07-14 16:51:00,79.5,73.2,30.09,South,169,6.0,7.0,81,0.00,,-RA,0.00,VWS V14.01,2013-07-14 20:51:00,
2013-07-14 16:56:00,79.5,73.2,30.09,South,170,3.0,7.0,81,0.00,,-RA,0.00,VWS V14.01,2013-07-14 20:56:00,
2013-07-14 17:00:00,79.5,73.2,30.10,South,177,4.0,4.0,81,0.00,,-RA,0.00,VWS V14.01,2013-07-14 21:00:00,
2013-07-14 17:05:00,79.5,73.5,30.11,South,185,2.0,7.0,82,0.00,,BKN110,0.00,VWS V14.01,2013-07-14 21:05:00,
2013-07-14 17:10:00,79.5,73.9,30.11,SE,140,0.0,7.0,83,0.00,,BKN110,0.00,VWS V14.01,2013-07-14 21:10:00,
2013-07-14 17:16:00,79.4,73.8,30.11,SSW,201,3.0,7.0,83,0.00,,BKN110,0.00,VWS V14.01,2013-07-14 21:16:00,
2013-07-14 17:21:00,79.2,73.6,30.11,SSW,199,4.0,7.0,83,0.00,,BKN110,0.00,VWS V14.01,2013-07-14 21:21:00,
2013-07-14 17:26:00,78.8,73.2,30.11,SSW,202,0.0,7.0,83,0.00,,BKN110,0.00,VWS V14.01,2013-07-14 21:26:00,
2013-07-14 17:31:00,78.5,73.3,30.11,SSW,197,4.0,7.0,84,0.00,,BKN110,0.00,VWS V14.01,2013-07-14 21:31:00,
2013-07-14 17:35:00,78.0,72.4,30.10,WNW,288,0.0,7.0,83,0.00,,BKN110,0.00,VWS V14.01,2013-07-14 21:35:00,
2013-07-14 17:40:00,77.5,72.6,30.11,West,279,0.0,7.0,85,0.00,,BKN110,0.00,VWS V14.01,2013-07-14 21:40:00,
2013-07-14 17:45:00,77.3,72.4,30.11,WNW,283,0.0,7.0,85,0.00,,BKN110,0.00,VWS V14.01,2013-07-14 21:45:00,
2013-07-14 17:50:00,77.2,72.7,30.10,SW,220,0.0,7.0,86,0.00,,BKN110,0.00,VWS V14.01,2013-07-14 21:50:00,
2013-07-14 17:55:00,77.1,72.6,30.11,South,191,0.0,7.0,86,0.01,,BKN110,0.01,VWS V14.01,2013-07-14 21:55:00,
2013-07-14 18:00:00,77.1,72.9,30.10,SSE,153,0.0,0.0,87,0.03,,BKN110,0.03,VWS V14.01,2013-07-14 22:00:00,
2013-07-14 18:05:00,77.0,72.8,30.10,SSE,153,0.0,0.0,87,0.09,,-RA,0.09,VWS V14.01,2013-07-14 22:05:00,
2013-07-14 18:10:00,77.0,72.8,30.11,SSE,153,0.0,0.0,87,0.10,,-RA,0.10,VWS V14.01,2013-07-14 22:10:00,
2013-07-14 18:15:00,77.0,73.2,30.10,SSE,148,0.0,0.0,88,0.10,,-RA,0.10,VWS V14.01,2013-07-14 22:15:00,
2013-07-14 18:20:00,76.9,73.1,30.10,SSE,149,0.0,1.0,88,0.10,,-RA,0.10,VWS V14.01,2013-07-14 22:20:00,
2013-07-14 18:25:00,76.9,73.4,30.10,SSE,147,0.0,1.0,89,0.10,,-RA,0.10,VWS V14.01,2013-07-14 22:25:00,
2013-07-14 18:30:00,76.8,73.3,30.10,SE,145,0.0,1.0,89,0.10,,-RA,0.10,VWS V14.01,2013-07-14 22:30:00,
2013-07-14 18:35:00,76.3,73.2,30.10,SE,146,0.0,1.0,90,0.10,,-RA,0.10,VWS V14.01,2013-07-14 22:35:00,
2013-07-14 18:40:00,76.2,73.1,30.10,SE,145,4.0,4.0,90,0.10,,-RA,0.10,VWS V14.01,2013-07-14 22:40:00,
2013-07-14 18:46:00,76.2,73.1,30.12,SSE,147,0.0,4.0,90,0.11,,-RA,0.11,VWS V14.01,2013-07-14 22:46:00,
2013-07-14 18:51:00,76.0,72.9,30.11,SE,144,0.0,4.0,90,0.11,,-RA,0.11,VWS V14.01,2013-07-14 22:51:00,
2013-07-14 18:56:00,75.8,72.7,30.10,SE,145,3.0,4.0,90,0.11,,-RA,0.11,VWS V14.01,2013-07-14 22:56:00,
2013-07-14 19:01:00,75.8,72.3,30.10,SE,145,0.0,0.0,89,0.08,,-RA,0.11,VWS V14.01,2013-07-14 23:01:00,
2013-07-14 19:06:00,75.7,72.2,30.11,SE,145,2.0,4.0,89,0.08,,-RA,0.11,VWS V14.01,2013-07-14 23:06:00,
2013-07-14 19:11:00,75.5,72.0,30.11,SE,145,0.0,4.0,89,0.09,,-RA,0.12,VWS V14.01,2013-07-14 23:11:00,
2013-07-14 19:15:00,75.3,72.2,30.11,SE,145,0.0,4.0,90,0.10,,-RA,0.13,VWS V14.01,2013-07-14 23:15:00,
2013-07-14 19:21:00,75.2,72.1,30.11,ESE,123,4.0,6.0,90,0.10,,-RA,0.13,VWS V14.01,2013-07-14 23:21:00,
2013-07-14 19:25:00,75.1,72.0,30.11,SE,144,3.0,8.0,90,0.11,,-RA,0.14,VWS V14.01,2013-07-14 23:25:00,
2013-07-14 19:30:00,75.1,72.3,30.10,ESE,119,3.0,8.0,91,0.11,,-RA,0.14,VWS V14.01,2013-07-14 23:30:00,
2013-07-14 19:35:00,75.0,72.2,30.11,SE,137,0.0,8.0,91,0.11,,-RA,0.14,VWS V14.01,2013-07-14 23:35:00,
2013-07-14 19:40:00,75.0,72.2,30.10,SSE,166,3.0,8.0,91,0.11,,-RA,0.14,VWS V14.01,2013-07-14 23:40:00,
2013-07-14 19:45:00,74.9,71.8,30.11,SSE,152,3.0,8.0,90,0.11,,-RA,0.14,VWS V14.01,2013-07-14 23:45:00,
2013-07-14 19:50:00,74.8,71.7,30.10,SSE,164,1.0,8.0,90,0.11,,-RA,0.14,VWS V14.01,2013-07-14 23:50:00,
2013-07-14 19:55:00,74.7,71.6,30.10,South,191,1.0,8.0,90,0.11,,-RA,0.14,VWS V14.01,2013-07-14 23:55:00,
2013-07-14 20:00:00,74.7,71.6,30.09,SSE,150,3.0,4.0,90,0.03,,-RA,0.14,VWS V14.01,2013-07-15 00:00:00,
2013-07-14 20:05:00,74.6,71.5,30.10,SE,146,0.0,4.0,90,0.03,,OVC075,0.14,VWS V14.01,2013-07-15 00:05:00,
2013-07-14 20:10:00,74.6,71.8,30.09,SE,137,0.0,4.0,91,0.03,,OVC075,0.14,VWS V14.01,2013-07-15 00:10:00,
2013-07-14 20:15:00,74.5,71.7,30.09,SE,146,0.0,4.0,91,0.03,,OVC075,0.14,VWS V14.01,2013-07-15 00:15:00,
2013-07-14 20:20:00,74.4,71.6,30.09,SE,142,0.0,4.0,91,0.03,,OVC075,0.14,VWS V14.01,2013-07-15 00:20:00,
2013-07-14 20:25:00,74.4,71.6,30.10,SSE,148,0.0,4.0,91,0.03,,OVC075,0.14,VWS V14.01,2013-07-15 00:25:00,
2013-07-14 20:30:00,74.4,71.6,30.09,SSE,147,0.0,4.0,91,0.03,,OVC075,0.14,VWS V14.01,2013-07-15 00:30:00,
2013-07-14 20:35:00,74.3,71.8,30.10,SE,143,0.0,4.0,92,0.03,,OVC075,0.14,VWS V14.01,2013-07-15 00:35:00,
2013-07-14 20:40:00,74.4,71.9,30.09,SE,145,0.0,4.0,92,0.03,,OVC075,0.14,VWS V14.01,2013-07-15 00:40:00,
2013-07-14 20:45:00,74.3,71.5,30.10,SSE,147,0.0,4.0,91,0.03,,OVC075,0.14,VWS V14.01,2013-07-15 00:45:00,
2013-07-14 20:50:00,74.4,72.2,30.09,SSE,147,0.0,4.0,93,0.03,,OVC075,0.14,VWS V14.01,2013-07-15 00:50:00,
2013-07-14 20:55:00,74.4,71.6,30.09,SSE,149,1.0,4.0,91,0.03,,OVC075,0.14,VWS V14.01,2013-07-15 00:55:00,
2013-07-14 21:00:00,74.4,71.6,30.10,SSE,149,0.0,0.0,91,0.00,,OVC075,0.14,VWS V14.01,2013-07-15 01:00:00,
2013-07-14 21:05:00,74.4,71.6,30.09,SSE,149,0.0,0.0,91,0.00,,OVC110,0.14,VWS V14.01,2013-07-15 01:05:00,
2013-07-14 21:10:00,74.4,71.6,30.10,SSE,149,0.0,0.0,91,0.00,,OVC110,0.14,VWS V14.01,2013-07-15 01:10:00,
2013-07-14 21:15:00,74.4,71.9,30.10,SSE,149,0.0,1.0,92,0.00,,OVC110,0.14,VWS V14.01,2013-07-15 01:15:00,
2013-07-14 21:20:00,74.4,71.6,30.10,SSE,149,0.0,1.0,91,0.00,,OVC110,0.14,VWS V14.01,2013-07-15 01:20:00,
2013-07-14 21:25:00,74.4,71.9,30.11,SSE,148,0.0,1.0,92,0.00,,OVC110,0.14,VWS V14.01,2013-07-15 01:25:00,
2013-07-14 21:30:00,74.4,71.9,30.11,SSE,148,0.0,1.0,92,0.00,,OVC110,0.14,VWS V14.01,2013-07-15 01:30:00,
2013-07-14 21:35:00,74.4,71.6,30.11,SSE,149,0.0,1.0,91,0.00,,OVC110,0.14,VWS V14.01,2013-07-15 01:35:00,
2013-07-14 21:40:00,74.3,71.5,30.11,SSE,149,0.0,1.0,91,0.00,,OVC110,0.14,VWS V14.01,2013-07-15 01:40:00,
2013-07-14 21:45:00,74.3,71.5,30.11,SSE,149,0.0,1.0,91,0.00,,OVC110,0.14,VWS V14.01,2013-07-15 01:45:00,
2013-07-14 21:50:00,74.3,71.8,30.11,SSE,149,0.0,1.0,92,0.00,,OVC110,0.14,VWS V14.01,2013-07-15 01:50:00,
2013-07-14 21:55:00,74.3,71.5,30.11,SSE,149,0.0,1.0,91,0.00,,OVC110,0.14,VWS V14.01,2013-07-15 01:55:00,
2013-07-14 22:00:00,74.3,71.8,30.11,SSE,149,0.0,0.0,92,0.00,,OVC110,0.14,VWS V14.01,2013-07-15 02:00:00,
2013-07-14 22:05:00,74.3,71.8,30.11,SSE,149,0.0,0.0,92,0.00,,FEW120,0.14,VWS V14.01,2013-07-15 02:05:00,
2013-07-14 22:10:00,74.3,71.8,30.11,SSE,149,0.0,0.0,92,0.00,,FEW120,0.14,VWS V14.01,2013-07-15 02:10:00,
2013-07-14 22:15:00,74.3,71.8,30.12,SSE,148,0.0,0.0,92,0.00,,FEW120,0.14,VWS V14.01,2013-07-15 02:15:00,
2013-07-14 22:20:00,74.3,71.8,30.12,SSE,149,0.0,0.0,92,0.00,,FEW120,0.14,VWS V14.01,2013-07-15 02:20:00,
2013-07-14 22:25:00,74.3,71.8,30.12,SSE,149,0.0,0.0,92,0.00,,FEW120,0.14,VWS V14.01,2013-07-15 02:25:00,
2013-07-14 22:30:00,74.2,71.4,30.12,SSE,149,0.0,0.0,91,0.00,,FEW120,0.14,VWS V14.01,2013-07-15 02:30:00,
2013-07-14 22:35:00,74.2,71.4,30.12,SSE,149,0.0,0.0,91,0.00,,FEW120,0.14,VWS V14.01,2013-07-15 02:35:00,
2013-07-14 22:40:00,74.2,71.4,30.12,SSE,148,0.0,0.0,91,0.00,,FEW120,0.14,VWS V14.01,2013-07-15 02:40:00,
2013-07-14 22:45:00,74.2,71.4,30.12,SSE,149,0.0,0.0,91,0.00,,FEW120,0.14,VWS V14.01,2013-07-15 02:45:00,
2013-07-14 22:50:00,74.1,71.6,30.12,SSE,149,0.0,0.0,92,0.00,,FEW120,0.14,VWS V14.01,2013-07-15 02:50:00,
2013-07-14 22:55:00,74.1,71.3,30.12,SSE,149,0.0,0.0,91,0.00,,FEW120,0.14,VWS V14.01,2013-07-15 02:55:00,
2013-07-14 23:00:00,74.0,71.2,30.11,SSE,149,0.0,0.0,91,0.00,,FEW120,0.14,VWS V14.01,2013-07-15 03:00:00,
2013-07-14 23:05:00,74.0,71.2,30.12,SSE,149,0.0,0.0,91,0.00,,CLR,0.14,VWS V14.01,2013-07-15 03:05:00,
2013-07-14 23:10:00,73.9,71.1,30.11,SSE,149,0.0,0.0,91,0.00,,CLR,0.14,VWS V14.01,2013-07-15 03:10:00,
2013-07-14 23:15:00,73.9,71.1,30.11,SSE,149,0.0,0.0,91,0.00,,CLR,0.14,VWS V14.01,2013-07-15 03:15:00,
2013-07-14 23:20:00,73.8,71.0,30.12,SSE,149,0.0,0.0,91,0.00,,CLR,0.14,VWS V14.01,2013-07-15 03:20:00,
2013-07-14 23:25:00,73.5,70.7,30.11,SSE,148,0.0,0.0,91,0.00,,CLR,0.14,VWS V14.01,2013-07-15 03:25:00,
2013-07-14 23:30:00,73.5,71.0,30.11,SSE,147,0.0,0.0,92,0.00,,CLR,0.14,VWS V14.01,2013-07-15 03:30:00,
2013-07-14 23:35:00,73.4,70.9,30.12,SE,146,0.0,0.0,92,0.00,,CLR,0.14,VWS V14.01,2013-07-15 03:35:00,
2013-07-14 23:40:00,73.4,70.9,30.12,SSE,148,0.0,0.0,92,0.00,,CLR,0.14,VWS V14.01,2013-07-15 03:40:00,
2013-07-14 23:45:00,73.4,71.3,30.12,SSE,147,0.0,0.0,93,0.00,,CLR,0.14,VWS V14.01,2013-07-15 03:45:00,
2013-07-14 23:50:00,73.4,71.3,30.11,SE,145,0.0,0.0,93,0.00,,CLR,0.14,VWS V14.01,2013-07-15 03:50:00,
2013-07-14 23:55:00,73.5,71.0,30.11,SSE,149,0.0,0.0,92,0.00,,CLR,0.14,VWS V14.01,2013-07-15 03:55:00,